Location: Milton Keynes
(52.0316°N, 0.7531°W)
Time: 12:28:31
(UTC+00:00)

Envisat - Pass Details

Date: 01 February 2019
Orbit: 764 x 766 km, 98.2° (Epoch: 23 February)

Event Time Altitude Azimuth Distance (km) Brightness Sun altitude
Rises 17:19:03 0° 128° (SE) 3,227 5.9 -4.9°
Reaches altitude 10° 17:21:38 10° 117° (ESE) 2,305 5.1 -5.2°
Maximum altitude 17:25:51 27° 60° (ENE) 1,435 3.9 -5.8°
Drops below altitude 10° 17:30:06 10° 4° (N) 2,317 5.3 -6.5°
Sets 17:32:42 0° 353° (N) 3,247 6.1 -6.8°
